Location: Quedlinburg
(51.7921°N, 11.1414°E)
Time: 15:43:10
(UTC+02:00)

CUBESAT XI-V - Pass Details

Date: 17 March 2026
Orbit: 643 x 664 km, 98.3° (Epoch: 17 April)

Event Time Altitude Azimuth Distance (km) Brightness Sun altitude
Exits shadow 02:37:02 30° 20° (NNE) 1,168 ? -32.4°
Drops below altitude 10° 02:39:40 10° 357° (N) 2,068 ? -32.2°
Sets 02:41:58 0° 350° (N) 2,980 ? -31.9°
